{"data":{"norad_id":36798,"intl_designator":"2010-035D","name":"ALSAT-2A","alt_names":[],"object_type":"PAYLOAD","status":"ACTIVE","operator":null,"country":"ALG","launch_date":"2010-07-12","launch_site_code":"SRILR","launch_vehicle":null,"mission":null,"orbit_class":"UNKNOWN","rcs_meters":0.794,"size_class":null,"mass_kg":null,"dimensions":null,"purposes":[],"wikipedia_slug":null,"has_3d_model":false,"image_url":null,"decayed_at":null,"tle_current":{"epoch":"2026-09-20T05:19:48.042048Z","epoch_age_seconds":31832,"freshness":"FRESH","line1":"1 36798U 10035D   26263.22208382  .00000189  00000+0  35439-4 0  9993","line2":"2 36798  97.7696 261.8995 0001116  69.1688 290.9640 14.74594850867767","mean_motion":14.7459485,"eccentricity":0.0001116,"inclination_deg":97.7696,"raan_deg":261.8995,"arg_perigee_deg":69.1688,"mean_anomaly_deg":290.964,"bstar":3.5439e-5,"rev_number":86776,"period_min":97.653942030246,"perigee_km":645.65371858793,"apogee_km":647.2216036523,"semimajor_km":7024.5746611201,"source":"CELESTRAK","updated_at":"2026-09-20T09:00:13.753716Z"}}}